| time (UTC) | temp F | wind direction | speed knots | gust knots | rain 1hr in | rain 24hr in | rain mn in | humidity % | barometer mb |
| 20260508085607 | 55 | 82 | 7.0 | 11.3 | 0.00 | 0.00 | 0.00 | 65 | 1019.4 |
| 20260508084106 | 53 | 112 | 7.0 | 13.0 | 0.00 | 0.00 | 0.00 | 68 | 1019.4 |
| 20260508082607 | 53 | 74 | 5.2 | 11.3 | 0.00 | 0.00 | 0.00 | 72 | 1019.3 |
| 20260508081106 | 53 | 72 | 5.2 | 11.3 | 0.00 | 0.00 | 0.00 | 72 | 1019.4 |
| 20260508075606 | 51 | 100 | 5.2 | 11.3 | 0.00 | 0.00 | 0.00 | 77 | 1019.5 |
| 20260508074105 | 51 | 86 | 5.2 | 11.3 | 0.00 | 0.00 | 0.00 | 75 | 1019.4 |
| 20260508072605 | 50 | 111 | 5.2 | 9.6 | 0.00 | 0.00 | 0.00 | 80 | 1019.4 |
| 20260508071105 | 50 | 107 | 3.5 | 7.0 | 0.00 | 0.00 | 0.00 | 82 | 1019.3 |
| 20260508065604 | 48 | 86 | 1.7 | 5.2 | 0.00 | 0.00 | 0.00 | 87 | 1019.0 |
| 20260508064104 | 46 | 99 | 1.7 | 5.2 | 0.00 | 0.00 | 0.00 | 90 | 1019.0 |
| 20260508062605 | 44 | 70 | 1.7 | 3.5 | 0.00 | 0.00 | 0.00 | 98 | 1018.9 |
| 20260508061103 | 42 | 71 | 1.7 | 5.2 | 0.00 | 0.00 | 0.00 | 99 | 1018.9 |
| 20260508055604 | 41 | 68 | 3.5 | 3.5 | 0.00 | 0.00 | 0.00 | 99 | 1018.8 |
| 20260508054102 | 39 | 64 | 3.5 | 5.2 | 0.00 | 0.00 | 0.00 | 99 | 1018.8 |
| 20260508052603 | 39 | 66 | 3.5 | 5.2 | 0.00 | 0.00 | 0.00 | 99 | 1018.8 |
| 20260508051102 | 37 | 62 | 0.0 | 1.7 | 0.00 | 0.00 | 0.00 | 99 | 1018.8 |
| 20260508045602 | 33 | 67 | 0.0 | 1.7 | 0.00 | 0.00 | 0.00 | 99 | 1018.8 |
| 20260508044101 | 35 | 66 | 1.7 | 3.5 | 0.00 | 0.00 | 0.00 | 99 | 1018.7 |
| 20260508042602 | 35 | 61 | 1.7 | 3.5 | 0.00 | 0.00 | 0.00 | 98 | 1018.4 |
| 20260508041101 | 37 | 69 | 1.7 | 3.5 | 0.00 | 0.00 | 0.00 | 99 | 1018.6 |
| 20260508035601 | 35 | 68 | 1.7 | 3.5 | 0.00 | 0.00 | 0.00 | 99 | 1018.4 |
| 20260508034101 | 35 | 55 | 1.7 | 3.5 | 0.00 | 0.00 | 0.00 | 99 | 1018.4 |
| 20260508032601 | 35 | 42 | 1.7 | 1.7 | 0.00 | 0.00 | 0.00 | 99 | 1018.4 |
| 20260508031100 | 35 | 42 | 1.7 | 1.7 | 0.00 | 0.00 | 0.00 | 99 | 1018.4 |
| 20260508025559 | 35 | 57 | 1.7 | 3.5 | 0.00 | 0.00 | 0.00 | 99 | 1018.4 |
| 20260508024059 | 35 | 42 | 1.7 | 3.5 | 0.00 | 0.00 | 0.00 | 99 | 1018.4 |
| 20260508022559 | 35 | 41 | 1.7 | 3.5 | 0.00 | 0.00 | 0.00 | 99 | 1018.6 |
| 20260508021059 | 35 | 47 | 1.7 | 3.5 | 0.00 | 0.00 | 0.00 | 98 | 1018.4 |
| 20260508015559 | 33 | 63 | 1.7 | 3.5 | 0.00 | 0.00 | 0.00 | 98 | 1018.5 |
| 20260508014058 | 35 | 67 | 1.7 | 3.5 | 0.00 | 0.00 | 0.00 | 99 | 1018.5 |
| 20260508012557 | 35 | 73 | 3.5 | 5.2 | 0.00 | 0.00 | 0.00 | 99 | 1018.5 |
| 20260508011057 | 35 | 69 | 3.5 | 3.5 | 0.00 | 0.00 | 0.00 | 98 | 1018.6 |
| 20260508005557 | 35 | 44 | 1.7 | 3.5 | 0.00 | 0.00 | 0.00 | 99 | 1018.6 |
| 20260508004057 | 37 | 51 | 1.7 | 1.7 | 0.00 | 0.00 | 0.00 | 99 | 1018.7 |
| 20260508002557 | 37 | 52 | 0.0 | 1.7 | 0.00 | 0.00 | 0.00 | 99 | 1018.5 |
| 20260508001057 | 35 | 52 | 0.0 | 1.7 | 0.00 | 0.00 | 0.00 | 98 | 1018.6 |
| 20260507235557 | 37 | 42 | 1.7 | 1.7 | 0.00 | 0.00 | 0.00 | 99 | 1018.6 |
| 20260507234057 | 35 | 36 | 0.0 | 1.7 | 0.00 | 0.00 | 0.00 | 99 | 1018.6 |
| 20260507232557 | 35 | 29 | 1.7 | 1.7 | 0.00 | 0.00 | 0.00 | 98 | 1018.6 |
| 20260507231057 | 37 | 35 | 1.7 | 1.7 | 0.00 | 0.00 | 0.00 | 99 | 1018.6 |
| 20260507225557 | 37 | 50 | 1.7 | 1.7 | 0.00 | 0.00 | 0.00 | 98 | 1018.6 |
| 20260507224057 | 39 | 35 | 1.7 | 1.7 | 0.00 | 0.00 | 0.00 | 99 | 1018.6 |
| 20260507222557 | 41 | 108 | 0.0 | 1.7 | 0.00 | 0.00 | 0.00 | 99 | 1018.4 |
| 20260507221056 | 39 | 105 | 0.0 | 1.7 | 0.00 | 0.00 | 0.00 | 95 | 1018.4 |
| 20260507215555 | 42 | 94 | 1.7 | 3.5 | 0.00 | 0.00 | 0.00 | 96 | 1018.3 |
| 20260507214055 | 42 | 88 | 1.7 | 3.5 | 0.00 | 0.00 | 0.00 | 92 | 1018.3 |
| 20260507212555 | 42 | 88 | 1.7 | 3.5 | 0.00 | 0.00 | 0.00 | 91 | 1018.2 |
| 20260507211056 | 44 | 87 | 1.7 | 3.5 | 0.00 | 0.00 | 0.00 | 88 | 1018.2 |
| 20260507205555 | 46 | 84 | 3.5 | 5.2 | 0.00 | 0.00 | 0.00 | 87 | 1018.0 |
| 20260507204055 | 46 | 81 | 3.5 | 5.2 | 0.00 | 0.00 | 0.00 | 86 | 1018.0 |
| 20260507202555 | 46 | 83 | 3.5 | 3.5 | 0.00 | 0.00 | 0.00 | 85 | 1017.8 |
| 20260507201054 | 46 | 85 | 1.7 | 3.5 | 0.00 | 0.00 | 0.00 | 84 | 1017.8 |
| 20260507195554 | 48 | 83 | 3.5 | 5.2 | 0.00 | 0.00 | 0.00 | 81 | 1017.7 |
| 20260507194053 | 48 | 83 | 3.5 | 7.0 | 0.00 | 0.00 | 0.00 | 79 | 1017.6 |
| 20260507192553 | 48 | 80 | 3.5 | 7.0 | 0.00 | 0.00 | 0.00 | 78 | 1017.4 |
| 20260507191053 | 50 | 82 | 3.5 | 5.2 | 0.00 | 0.00 | 0.00 | 77 | 1017.4 |
| 20260507185553 | 50 | 82 | 3.5 | 7.0 | 0.00 | 0.00 | 0.00 | 74 | 1017.2 |
| 20260507184053 | 51 | 83 | 3.5 | 9.6 | 0.00 | 0.00 | 0.00 | 72 | 1017.1 |
| 20260507182553 | 53 | 69 | 5.2 | 9.6 | 0.00 | 0.00 | 0.00 | 68 | 1017.1 |
| 20260507181052 | 53 | 61 | 5.2 | 9.6 | 0.00 | 0.00 | 0.00 | 68 | 1017.0 |
| 20260507175552 | 53 | 63 | 5.2 | 11.3 | 0.00 | 0.00 | 0.00 | 64 | 1016.9 |
| 20260507174052 | 55 | 79 | 5.2 | 11.3 | 0.00 | 0.00 | 0.00 | 65 | 1016.8 |
| 20260507172551 | 55 | 70 | 7.0 | 11.3 | 0.00 | 0.00 | 0.00 | 66 | 1016.7 |
| 20260507171050 | 55 | 92 | 7.0 | 11.3 | 0.00 | 0.00 | 0.00 | 66 | 1016.6 |
| 20260507165551 | 57 | 93 | 7.0 | 11.3 | 0.00 | 0.00 | 0.00 | 63 | 1016.5 |
| 20260507164050 | 55 | 85 | 7.0 | 11.3 | 0.00 | 0.00 | 0.00 | 64 | 1016.4 |
| 20260507162551 | 57 | 79 | 5.2 | 13.0 | 0.00 | 0.00 | 0.00 | 60 | 1016.2 |
| 20260507161050 | 57 | 103 | 7.0 | 13.0 | 0.00 | 0.00 | 0.00 | 63 | 1016.1 |
| 20260507155550 | 59 | 112 | 5.2 | 9.6 | 0.00 | 0.00 | 0.00 | 60 | 1016.0 |
| 20260507154049 | 57 | 107 | 7.0 | 11.3 | 0.00 | 0.00 | 0.00 | 62 | 1016.0 |
| 20260507152549 | 57 | 89 | 7.0 | 13.0 | 0.00 | 0.00 | 0.00 | 61 | 1015.9 |
| 20260507151049 | 57 | 69 | 5.2 | 13.0 | 0.00 | 0.00 | 0.00 | 56 | 1015.8 |
| 20260507145548 | 60 | 69 | 3.5 | 9.6 | 0.00 | 0.00 | 0.00 | 52 | 1015.8 |
| 20260507144048 | 60 | 70 | 1.7 | 7.0 | 0.00 | 0.00 | 0.00 | 46 | 1015.7 |
| 20260507142548 | 59 | 11 | 5.2 | 9.6 | 0.00 | 0.00 | 0.00 | 51 | 1015.9 |
| 20260507141047 | 60 | 47 | 3.5 | 9.6 | 0.00 | 0.00 | 0.00 | 47 | 1015.9 |
| 20260507135547 | 59 | 56 | 5.2 | 9.6 | 0.00 | 0.00 | 0.00 | 52 | 1015.9 |
| 20260507134047 | 59 | 65 | 3.5 | 9.6 | 0.00 | 0.00 | 0.00 | 52 | 1016.0 |
| 20260507132547 | 59 | 18 | 5.2 | 13.0 | 0.00 | 0.00 | 0.00 | 54 | 1016.0 |
| 20260507131046 | 59 | 11 | 7.0 | 13.0 | 0.00 | 0.00 | 0.00 | 54 | 1015.9 |
| 20260507125546 | 59 | 33 | 5.2 | 11.3 | 0.00 | 0.00 | 0.00 | 53 | 1015.9 |
| 20260507124046 | 59 | 26 | 5.2 | 13.0 | 0.00 | 0.00 | 0.00 | 55 | 1015.9 |
| 20260507122546 | 59 | 8 | 7.0 | 13.0 | 0.00 | 0.00 | 0.00 | 55 | 1016.0 |
| 20260507121045 | 57 | 7 | 3.5 | 11.3 | 0.00 | 0.00 | 0.00 | 57 | 1016.0 |
| 20260507115545 | 57 | 12 | 5.2 | 9.6 | 0.00 | 0.00 | 0.00 | 59 | 1015.9 |
| 20260507114044 | 57 | 32 | 5.2 | 11.3 | 0.00 | 0.00 | 0.00 | 61 | 1016.0 |
| 20260507112544 | 57 | 10 | 5.2 | 11.3 | 0.00 | 0.00 | 0.00 | 62 | 1016.0 |
| 20260507111043 | 57 | 30 | 5.2 | 11.3 | 0.00 | 0.00 | 0.00 | 59 | 1016.0 |
| 20260507105544 | 55 | 344 | 5.2 | 11.3 | 0.00 | 0.00 | 0.00 | 63 | 1015.9 |
| 20260507104043 | 55 | 19 | 5.2 | 9.6 | 0.00 | 0.00 | 0.00 | 65 | 1015.8 |
| 20260507102543 | 55 | 36 | 5.2 | 11.3 | 0.00 | 0.00 | 0.00 | 65 | 1015.7 |
| 20260507101042 | 55 | 21 | 7.0 | 11.3 | 0.00 | 0.00 | 0.00 | 65 | 1015.6 |
| 20260507095542 | 53 | 22 | 5.2 | 11.3 | 0.00 | 0.00 | 0.00 | 65 | 1015.6 |
| 20260507094042 | 53 | 14 | 5.2 | 9.6 | 0.00 | 0.00 | 0.00 | 67 | 1015.5 |
| 20260507092543 | 53 | 14 | 5.2 | 9.6 | 0.00 | 0.00 | 0.00 | 69 | 1015.4 |
| 20260507091042 | 53 | 0 | 5.2 | 9.6 | 0.00 | 0.00 | 0.00 | 70 | 1015.3 |